[[{"header":{"parameterUnit":"m.s-1","parameterCategory":1,"la1":30.2992,"la2":30.254,"lo1":-89.0895,"lo2":-89.0443,"dy":0.0025,"dx":0.0025,"nx":19,"ny":19,"refTime":"2026-04-01T21:00:00:Z","depth":0,"parameterNumber":2,"parameterNumberName":"U-component_of_WINDS"},"data":[0,0,0,-3.2331,-3.2334,-3.2471,-3.2471,-3.2647,-3.2649,0,0,0,0,0,0,0,0,0,0,0,-3.229,-3.2291,-3.233,-3.2334,-3.247,-3.2471,-3.2647,-3.2649,0,0,0,0,0,0,0,0,0,0,0,-3.2289,-3.2291,-3.2292,-3.2334,-3.247,-3.2471,-3.2647,-3.2543,0,0,0,0,0,0,0,0,0,0,-3.241,-3.2372,-3.229,-3.2292,-3.2335,-3.247,-3.2471,-3.2538,-3.255,-3.2586,0,-3.2616,0,-3.2635,-3.2661,-3.2661,0,0,0,-3.2335,-3.2362,-3.2399,-3.2292,-3.2336,-3.247,-3.2409,-3.2545,-3.2558,-3.2601,-3.2619,-3.2625,-3.2638,-3.2662,-3.2663,-3.2864,-3.2865,0,0,-3.2327,-3.2314,-3.239,-3.2408,-3.2385,-3.2405,-3.2413,-3.2553,-3.2572,-3.2619,-3.2629,-3.2641,-3.2663,-3.2664,-3.2863,-3.2864,0,0,0,-3.2305,-3.2309,-3.2343,-3.24,-3.2425,-3.2409,-3.2419,-3.2566,-3.2578,-3.2631,-3.2643,-3.2664,-3.2666,-3.2862,-3.2864,-3.2895,0,0,0,-3.23,-3.2296,-3.2339,-3.2333,-3.2422,-3.2497,-3.2428,-3.2568,-3.2584,-3.2642,-3.2664,-3.2668,-3.2861,-3.2863,-3.2892,-3.2912,0,0,0,-3.2281,-3.2294,-3.2313,-3.2332,-3.239,-3.2495,-3.2515,-3.2572,-3.2591,-3.2662,-3.2668,-3.2861,-3.2863,-3.289,-3.2908,-3.2961,0,0,0,-3.2257,-3.234,-3.2314,-3.2412,-3.2389,-3.2513,-3.2514,-3.2607,-3.2671,-3.2665,-3.2862,-3.2864,-3.2889,-3.2905,-3.2958,-3.3003,-3.302,0,0,-3.2355,-3.2352,-3.2411,-3.2391,-3.2516,-3.2493,-3.2624,-3.2695,-3.2714,-3.2813,-3.2819,-3.2893,-3.2908,-3.2961,-3.3125,-3.3138,0,0,0,-3.2437,-3.2479,-3.2515,-3.2575,-3.2631,-3.268,-3.2733,-3.2759,-3.2844,-3.2762,-3.2928,-3.2937,-3.2968,-3.299,-3.3002,-3.303,-3.2873,-3.2873,-3.2873,-3.2558,-3.2577,-3.2675,-3.2711,-3.2769,-3.2822,-3.2871,-3.2916,-3.2919,-3.2958,-3.2987,-3.3084,-3.311,-3.3119,-3.3147,-3.3013,-3.3013,-3.3014,-3.3014,-3.2703,-3.2765,-3.2767,-3.2862,-3.2882,-3.2964,-3.3019,-3.3018,-3.3097,-3.3064,-3.3093,-3.3054,-3.3133,-3.3159,-3.3016,-3.3016,-3.3016,-3.3015,-3.3015,-3.2784,-3.2817,-3.2847,-3.2935,-3.3001,-3.3035,-3.3111,-3.3127,-3.3143,-3.3171,-3.3204,-3.3203,-3.3205,-3.3186,-3.3186,-3.3187,-3.3187,-3.3187,-3.3187,-3.2855,-3.2888,-3.2949,-3.3015,-3.3055,-3.3111,-3.3166,-3.3207,-3.3256,-3.3262,-3.3262,-3.3261,-3.3137,-3.3105,-3.3193,-3.3192,-3.3191,-3.3191,-3.319,-3.2994,-3.2965,-3.3059,-3.3099,-3.3178,-3.3243,-3.3263,-3.3345,-3.3381,-3.3418,-3.3411,-3.3317,-3.3315,-3.3306,-3.3279,-3.3407,-3.3407,-3.3407,-3.3407,-3.3061,-3.3062,-3.3161,-3.3224,-3.3289,-3.3316,-3.3423,-3.3467,-3.3508,-3.3532,-3.3516,-3.3483,-3.3473,-3.3477,-3.3464,-3.3439,-3.3604,-3.3605,-3.3605,-3.3147,-3.3155,-3.3242,-3.328,-3.3343,-3.3397,-3.3498,-3.3572,-3.3613,-3.3613,-3.3551,-3.3542,-3.3489,-3.3471,-3.3468,-3.3448,-3.3403,0,0]},{"header":{"parameterUnit":"m.s-1","parameterCategory":1,"la1":30.2992,"la2":30.254,"lo1":-89.0895,"lo2":-89.0443,"dy":0.0025,"dx":0.0025,"nx":19,"ny":19,"refTime":"2026-04-01T21:00:00:Z","depth":0,"parameterNumber":3,"parameterNumberName":"V-component_of_WINDS"},"data":[0,0,0,2.9459,2.946,2.9469,2.9469,2.9499,2.95,0,0,0,0,0,0,0,0,0,0,0,2.9467,2.9467,2.9459,2.946,2.9469,2.9469,2.9499,2.95,0,0,0,0,0,0,0,0,0,0,0,2.9466,2.9467,2.9468,2.946,2.9469,2.9469,2.9499,2.9486,0,0,0,0,0,0,0,0,0,0,2.9473,2.949,2.9467,2.9468,2.946,2.9469,2.9469,2.9485,2.9486,2.9503,0,2.9519,0,2.951,2.9503,2.9503,0,0,0,2.9452,2.9489,2.9482,2.9468,2.946,2.9469,2.9463,2.9485,2.9487,2.9505,2.952,2.952,2.9511,2.9503,2.9503,2.9623,2.9624,0,0,2.9451,2.9474,2.9481,2.9484,2.9483,2.9462,2.9463,2.9486,2.9504,2.952,2.9521,2.9511,2.9503,2.9504,2.9622,2.9623,0,0,0,2.9455,2.9474,2.9466,2.9483,2.9484,2.9463,2.9463,2.9503,2.9498,2.9521,2.9512,2.9504,2.9504,2.9621,2.9622,2.9692,0,0,0,2.9454,2.9476,2.9466,2.9481,2.9484,2.9493,2.948,2.9497,2.9499,2.9511,2.9504,2.9505,2.962,2.9622,2.9687,2.9721,0,0,0,2.9463,2.9477,2.9482,2.9482,2.9487,2.9492,2.9489,2.9496,2.9493,2.9503,2.9505,2.9619,2.9621,2.9684,2.9715,2.976,0,0,0,2.9478,2.9542,2.9484,2.9552,2.9487,2.9535,2.9488,2.9523,2.9539,2.9504,2.962,2.9622,2.9683,2.9711,2.9757,2.9804,2.9825,0,0,2.9572,2.9555,2.9593,2.9541,2.9605,2.9531,2.9606,2.9599,2.9578,2.9609,2.9612,2.9689,2.9714,2.976,2.9935,2.9953,0,0,0,2.9631,2.9659,2.9671,2.9688,2.9684,2.9685,2.9664,2.9661,2.9687,2.9599,2.9716,2.973,2.9756,2.9778,2.9793,2.9814,2.9633,2.9633,2.9632,2.9798,2.9769,2.9831,2.9804,2.9821,2.9799,2.9811,2.9804,2.9769,2.9797,2.9807,2.9917,2.9943,2.9954,2.9977,2.9828,2.9828,2.9828,2.9828,2.9934,2.9971,2.9923,2.9967,2.9936,2.9972,2.9955,2.9929,2.9959,2.9907,2.9928,2.9875,2.9974,2.9992,2.9833,2.9833,2.9832,2.9831,2.9831,3.0042,3.0054,3.005,3.0073,3.0093,3.0063,3.0094,3.0064,3.0037,3.0058,3.0066,3.0064,3.0061,3.0063,3.0063,3.0064,3.0064,3.0064,3.0065,3.0156,3.0149,3.0179,3.0182,3.0189,3.0196,3.0175,3.0182,3.0182,3.0158,3.0158,3.0122,2.9988,2.9956,3.0071,3.007,3.0069,3.0068,3.0068,3.0308,3.0269,3.0316,3.0324,3.0325,3.0349,3.031,3.0327,3.0328,3.0345,3.0304,3.0209,3.0189,3.0177,3.0151,3.0308,3.0308,3.0308,3.0308,3.0401,3.0387,3.0429,3.0444,3.0455,3.0425,3.048,3.0465,3.0444,3.0443,3.0415,3.0377,3.0366,3.0353,3.0337,3.0312,3.0507,3.0507,3.0508,3.0494,3.048,3.0533,3.0511,3.051,3.051,3.0561,3.0581,3.0548,3.0515,3.0442,3.0434,3.0372,3.0353,3.032,3.0296,3.0249,0,0]}]]